User: anonymous   Login
Location: Unspecified
(0.0000°N, 0.0000°E)
Time: 12:49:26
(UTC+00:00)
Language:

A-11 Canister half - Orbit

View from above orbital plane
View from above orbital plane
View from above satellite
View from above satellite

Ground track
Ground track

The orbit data is extracted from the following two-line orbital elements,

1 00051U 60009C   14303.97053247 -.00000085  00000-0  00000+0 0  6753
2 00051 047.2119 229.5723 0102347 168.8659 315.8985 12.18240666413386
Epoch (UTC): 30 October 2014 23:17:34
Eccentricity: 0.0102347
inclination: 47.2119°
perigee height: 1518 km
apogee height: 1682 km
right ascension of ascending node: 229.5723°
argument of perigee: 168.8659°
revolutions per day: 12.18240666
mean anomaly at epoch: 315.8985°
orbit number at epoch: 41338

The dashed part of the orbit path shows where the satellite is in the earth's shadow,  

DLR